Location: Newark
(47.7394°N, 8.0008°E)
Time: 12:59:01
(UTC+00:00)

N. Korean satellite - Pass Details

Date: 14 December 2019
Orbit: 454 x 508 km, 97.2° (Epoch: 17 January)

Event Time Altitude Azimuth Distance (km) Brightness Sun altitude
Rises 04:51:21 0° 21° (NNE) 2,537 10.3 -22.0°
Reaches altitude 10° 04:53:36 10° 31° (NNE) 1,643 9.5 -21.6°
Maximum altitude 04:56:47 32° 96° (E) 829 8.4 -21.1°
Drops below altitude 10° 04:59:55 10° 161° (SSE) 1,606 9.6 -20.6°
Sets 05:02:04 0° 172° (S) 2,469 10.4 -20.3°
